EA1QW Weather Reports


Display with metric or nautical units.
time (UTC)temp
F
wind
direction
speed
MPH
gust
MPH
rain 1hr
in
rain 24hr
in
rain mn
in
humidity
%
barometer
mb
20170629104520 59 250 10.0 21.0 0.16 0.67 0.09 82 1012.2
20170629104034 60 247 9.0 24.0 0.08 0.59 0.08 80 1012.2
20170629103533 60 215 10.0 21.0 0.04 0.55 0.07 77 1012.2
20170629103023 60 246 7.0 17.0 0.04 0.55 0.07 80 1012.1
20170629102518 61 193 10.0 17.0 0.04 0.55 0.07 77 1012.1
20170629102028 61 259 6.0 15.0 0.00 0.51 0.06 77 1012.1
20170629101526 62 259 9.0 15.0 0.00 0.51 0.06 75 1011.7
20170629101025 62 246 6.0 12.0 0.00 0.51 0.06 72 1011.7
20170629100519 63 254 3.0 9.0 0.00 0.51 0.06 70 1011.7
20170629100030 63 244 5.0 15.0 0.00 0.51 0.06 67 1011.7
20170629095526 63 275 7.0 15.0 0.00 0.51 0.06 66 1011.7
20170629095027 63 279 6.0 14.0 0.00 0.51 0.06 67 1011.7
20170629094522 63 188 7.0 14.0 0.00 0.51 0.06 66 1011.7
20170629094017 63 231 7.0 12.0 0.00 0.51 0.06 68 1011.7
20170629093526 63 203 4.0 11.0 0.00 0.51 0.06 69 1011.7
20170629093021 63 230 5.0 11.0 0.00 0.51 0.06 69 1011.6
20170629092522 62 202 6.0 11.0 0.00 0.51 0.06 69 1011.6
20170629092016 63 211 6.0 12.0 0.00 0.51 0.06 69 1011.6
20170629091533 63 246 7.0 22.0 0.00 0.51 0.06 67 1011.5
20170629091014 64 227 6.0 22.0 0.00 0.51 0.06 64 1011.5
20170629090529 64 255 7.0 16.0 0.00 0.51 0.06 64 1011.5
20170629090033 64 232 5.0 13.0 0.00 0.51 0.06 64 1011.5
20170629085531 63 265 7.0 12.0 0.00 0.51 0.06 65 1011.5
20170629085021 63 229 7.0 17.0 0.00 0.51 0.06 65 1011.5
20170629084529 63 252 5.0 17.0 0.00 0.51 0.06 65 1011.3
20170629084026 63 209 8.0 24.0 0.00 0.51 0.06 64 1011.3
20170629083526 64 256 9.0 24.0 0.00 0.51 0.06 63 1011.3
20170629083019 65 191 6.0 18.0 0.00 0.51 0.06 64 1011.2
20170629082523 65 248 5.0 11.0 0.00 0.51 0.06 65 1011.2
20170629082025 64 227 4.0 12.0 0.00 0.51 0.06 67 1011.2
20170629081530 63 235 5.0 12.0 0.00 0.51 0.06 69 1011.2
20170629081022 63 231 3.0 11.0 0.00 0.51 0.06 70 1011.2
20170629080522 63 238 5.0 11.0 0.00 0.51 0.06 70 1011.2
20170629080021 62 229 6.0 14.0 0.00 0.55 0.06 71 1011.4
20170629075518 62 198 4.0 16.0 0.00 0.55 0.06 72 1011.4
20170629075022 62 212 8.0 16.0 0.00 0.55 0.06 71 1011.4
20170629074522 62 182 6.0 10.0 0.00 0.55 0.06 71 1011.4
20170629074017 61 232 3.0 11.0 0.00 0.55 0.06 72 1011.4
20170629073530 61 238 5.0 18.0 0.00 0.55 0.06 71 1011.4
20170629073012 61 205 8.0 18.0 0.00 0.55 0.06 70 1011.2
20170629072525 61 239 4.0 11.0 0.00 0.55 0.06 71 1011.2
20170629072021 61 180 6.0 11.0 0.00 0.55 0.06 71 1011.2
20170629071521 62 223 5.0 11.0 0.00 0.55 0.06 71 1011.2
20170629071014 62 223 4.0 12.0 0.04 0.55 0.06 72 1011.2
20170629070531 61 234 4.0 12.0 0.04 0.55 0.06 74 1011.2
20170629070025 61 243 5.0 8.0 0.04 0.55 0.06 74 1011.1
20170629065521 60 215 3.0 7.0 0.04 0.55 0.06 77 1011.1
20170629065015 60 231 3.0 7.0 0.04 0.55 0.06 77 1011.1
20170629064520 60 225 3.0 7.0 0.04 0.55 0.06 77 1011.1
20170629064030 60 199 2.0 8.0 0.04 0.55 0.06 77 1011.1
20170629063523 60 234 3.0 9.0 0.04 0.55 0.06 77 1011.1
20170629063017 59 210 3.0 9.0 0.04 0.55 0.06 78 1011.1
20170629062529 59 262 3.0 9.0 0.04 0.55 0.06 78 1011.1
20170629062020 59 191 5.0 9.0 0.04 0.55 0.06 79 1011.1
20170629061523 59 203 1.0 7.0 0.04 0.55 0.06 81 1011.2
20170629061026 58 211 2.0 7.0 0.00 0.51 0.06 82 1011.2
20170629060533 58 198 3.0 7.0 0.00 0.51 0.06 82 1011.2
20170629060028 58 196 2.0 8.0 0.00 0.51 0.06 82 1011.2
20170629055532 58 197 3.0 8.0 0.00 0.51 0.06 82 1011.2
20170629055028 58 175 1.0 5.0 0.00 0.51 0.06 83 1011.2
20170629054530 58 191 3.0 5.0 0.00 0.51 0.06 82 1011.1
20170629054029 58 198 2.0 6.0 0.00 0.51 0.06 83 1011.1
20170629053529 58 199 2.0 9.0 0.00 0.51 0.06 82 1011.1
20170629053029 58 190 6.0 9.0 0.00 0.51 0.06 83 1011.2
20170629052533 58 189 1.0 7.0 0.00 0.51 0.06 84 1011.2
20170629052017 57 205 2.0 7.0 0.00 0.51 0.06 84 1011.2
20170629051518 57 213 4.0 7.0 0.00 0.51 0.06 85 1011.3
20170629051020 57 205 2.0 7.0 0.00 0.51 0.06 86 1011.3
20170629050523 57 215 3.0 9.0 0.00 0.51 0.06 87 1011.3
20170629050023 57 234 3.0 9.0 0.00 0.59 0.06 88 1011.3
20170629045527 57 208 1.0 6.0 0.00 0.59 0.06 88 1011.3
20170629045029 57 206 1.0 7.0 0.00 0.59 0.06 89 1011.3
20170629044527 57 225 2.0 4.0 0.00 0.59 0.06 90 1011.3
20170629044026 57 229 1.0 3.0 0.00 0.59 0.06 90 1011.3
20170629043525 57 229 0.0 3.0 0.00 0.59 0.06 90 1011.3
20170629043024 57 229 0.0 3.0 0.00 0.59 0.06 90 1011.3
20170629042527 57 229 0.0 2.0 0.00 0.59 0.06 90 1011.3
20170629042024 57 229 1.0 7.0 0.00 0.59 0.06 90 1011.3
20170629041527 57 229 2.0 7.0 0.04 0.59 0.06 90 1011.2
20170629041032 57 202 1.0 6.0 0.08 0.59 0.06 90 1011.2
20170629040513 57 211 1.0 5.0 0.08 0.59 0.06 90 1011.2
20170629040031 57 193 1.0 5.0 0.08 0.67 0.06 90 1011.2
20170629035514 57 193 2.0 6.0 0.08 0.67 0.06 90 1011.2
20170629035018 57 199 2.0 6.0 0.08 0.67 0.06 89 1011.2
20170629034517 57 217 2.0 8.0 0.08 0.67 0.06 89 1011.2
20170629034019 57 221 3.0 12.0 0.12 0.67 0.06 89 1011.2
20170629033520 57 249 3.0 12.0 0.12 0.67 0.06 89 1011.2
20170629033019 57 226 3.0 8.0 0.12 0.67 0.06 89 1011.6
20170629032520 58 203 3.0 12.0 0.12 0.67 0.06 88 1011.6
20170629032019 58 225 4.0 20.0 0.16 0.67 0.06 88 1011.6
20170629031520 58 252 8.0 20.0 0.12 0.63 0.05 87 1011.7
20170629031025 58 259 4.0 12.0 0.12 0.59 0.04 88 1011.7
20170629030518 58 244 6.0 10.0 0.12 0.59 0.04 88 1011.7
20170629030032 58 251 4.0 8.0 0.16 0.59 0.04 88 1011.7
20170629025531 58 263 3.0 9.0 0.16 0.59 0.04 87 1011.7
20170629025030 58 244 6.0 11.0 0.16 0.59 0.04 87 1011.7
20170629024530 58 231 7.0 11.0 0.16 0.59 0.04 86 1011.7
20170629024029 58 254 4.0 10.0 0.12 0.55 0.03 85 1011.7
20170629023529 58 238 5.0 10.0 0.12 0.55 0.03 84 1011.7
20170629023027 58 254 5.0 17.0 0.12 0.55 0.03 83 1012.1
20170629022513 59 202 7.0 20.0 0.12 0.55 0.03 83 1012.1
20170629022032 59 257 9.0 20.0 0.08 0.51 0.02 82 1012.1
20170629021515 60 267 7.0 13.0 0.08 0.51 0.02 78 1011.7
20170629021032 60 254 3.0 7.0 0.04 0.47 0.02 76 1011.7
20170629020530 60 237 2.0 9.0 0.04 0.47 0.02 75 1011.7
20170629020028 60 213 4.0 9.0 0.00 0.43 0.01 73 1011.4
20170629015532 60 227 2.0 8.0 0.00 0.43 0.01 73 1011.4
20170629015028 60 229 3.0 8.0 0.00 0.43 0.01 73 1011.4
20170629014510 60 236 1.0 8.0 0.04 0.43 0.01 73 1011.6
20170629014031 60 200 1.0 8.0 0.04 0.43 0.01 74 1011.6
20170629013513 60 223 2.0 8.0 0.04 0.43 0.01 74 1011.6
20170629013030 60 226 2.0 6.0 0.04 0.43 0.01 75 1011.6
20170629012513 60 217 1.0 8.0 0.04 0.43 0.01 76 1011.6
20170629012014 60 196 4.0 9.0 0.04 0.43 0.01 76 1011.6
20170629011519 60 218 5.0 9.0 0.04 0.43 0.01 76 1011.8
20170629011020 60 231 2.0 8.0 0.04 0.43 0.01 78 1011.8
20170629010515 60 238 4.0 9.0 0.04 0.43 0.01 78 1011.8
20170629010028 60 248 4.0 11.0 0.04 0.43 0.01 78 1012.2
20170629005530 60 200 4.0 22.0 0.04 0.43 0.01 77 1012.2
20170629005030 61 225 8.0 22.0 0.04 0.43 0.01 75 1012.2
20170629004518 62 271 5.0 13.0 0.00 0.39 0.00 70 1012.1
20170629004017 62 250 4.0 13.0 0.00 0.39 0.00 68 1012.1
20170629003530 62 188 3.0 10.0 0.00 0.39 0.00 67 1012.1
20170629003012 62 242 4.0 11.0 0.00 0.39 0.00 67 1012.2
20170629002515 62 249 4.0 16.0 0.00 0.39 0.00 67 1012.2
20170629002030 62 227 7.0 16.0 0.00 0.39 0.00 67 1012.2
20170629001529 62 217 3.0 12.0 0.00 0.39 0.00 67 1012.2
20170629001014 62 269 5.0 9.0 0.00 0.39 0.00 67 1012.2
20170629000532 62 223 2.0 7.0 0.00 0.39 0.00 67 1012.2
20170629000026 62 194 4.0 11.0 0.00 0.39 0.08 67 1012.2
20170628235525 62 247 5.0 12.0 0.00 0.39 0.08 67 1012.2
20170628235022 62 250 5.0 16.0 0.00 0.39 0.08 67 1012.2
20170628234523 62 192 4.0 16.0 0.00 0.39 0.08 67 1012.3
20170628234028 62 260 4.0 10.0 0.00 0.39 0.08 67 1012.3
20170628233526 62 240 4.0 13.0 0.00 0.39 0.08 67 1012.3
20170628233022 62 225 4.0 13.0 0.00 0.39 0.08 67 1012.3
20170628232532 62 236 5.0 11.0 0.00 0.39 0.08 67 1012.3
20170628232016 62 220 5.0 11.0 0.00 0.39 0.08 67 1012.3
20170628231521 62 227 2.0 8.0 0.00 0.39 0.08 68 1012.5
20170628231020 62 244 2.0 8.0 0.00 0.39 0.08 67 1012.5
20170628230522 63 203 3.0 12.0 0.00 0.39 0.08 67 1012.5
20170628230020 63 242 4.0 13.0 0.00 0.39 0.08 67 1012.3
20170628225527 63 231 6.0 17.0 0.00 0.39 0.08 66 1012.3
20170628225014 63 240 10.0 17.0 0.00 0.39 0.08 66 1012.3
20170628224516 62 244 8.0 17.0 0.00 0.39 0.08 66 1012.5
20170628224013 62 234 7.0 13.0 0.00 0.39 0.08 67 1012.5
20170628223513 62 232 5.0 10.0 0.00 0.39 0.08 67 1012.5
20170628223020 62 253 4.0 10.0 0.00 0.39 0.08 67 1012.5
20170628222518 62 200 3.0 10.0 0.00 0.39 0.08 67 1012.5
20170628222026 62 257 4.0 16.0 0.00 0.39 0.08 67 1012.5
20170628221522 62 229 6.0 16.0 0.00 0.39 0.08 66 1012.4
20170628221024 62 236 6.0 15.0 0.00 0.39 0.08 66 1012.4
20170628220512 62 262 5.0 15.0 0.00 0.39 0.08 66 1012.4
20170628220030 62 225 5.0 12.0 0.00 0.39 0.08 66 1012.4
20170628215533 62 190 3.0 10.0 0.00 0.39 0.08 67 1012.4
20170628215030 63 231 4.0 11.0 0.00 0.39 0.08 66 1012.4
20170628214529 63 198 6.0 11.0 0.00 0.39 0.08 66 1012.4
20170628214030 63 228 5.0 16.0 0.00 0.39 0.08 66 1012.4
20170628213515 63 213 7.0 19.0 0.00 0.39 0.08 66 1012.4
20170628213030 63 223 11.0 19.0 0.00 0.39 0.08 66 1012.4
20170628212530 63 251 5.0 20.0 0.00 0.39 0.08 67 1012.4
20170628212025 63 237 9.0 20.0 0.00 0.39 0.08 67 1012.4
20170628211521 63 228 7.0 16.0 0.00 0.39 0.08 67 1012.4
20170628211022 62 202 5.0 13.0 0.00 0.39 0.08 68 1012.4
20170628210517 62 229 6.0 10.0 0.00 0.39 0.08 69 1012.4
20170628210032 62 202 3.0 9.0 0.00 0.39 0.08 69 1012.5
20170628205530 62 249 4.0 13.0 0.00 0.39 0.08 69 1012.5
20170628205023 62 241 7.0 18.0 0.00 0.39 0.08 69 1012.5
20170628204523 62 227 8.0 18.0 0.00 0.39 0.08 69 1012.3
20170628204015 62 231 3.0 15.0 0.00 0.39 0.08 71 1012.3
20170628203516 62 246 3.0 13.0 0.00 0.39 0.08 71 1012.3
20170628203031 62 244 6.0 14.0 0.00 0.39 0.08 71 1012.2
20170628202511 62 237 7.0 18.0 0.00 0.39 0.08 71 1012.2
20170628202029 62 211 7.0 18.0 0.00 0.39 0.08 71 1012.2
20170628201526 62 236 5.0 16.0 0.00 0.39 0.08 72 1012.2
20170628201011 63 261 7.0 22.0 0.00 0.39 0.08 72 1012.2
20170628200532 63 178 9.0 22.0 0.00 0.39 0.08 71 1012.2
20170628200030 63 226 6.0 20.0 0.00 0.43 0.08 71 1012.1
20170628195525 63 205 9.0 22.0 0.00 0.43 0.08 70 1012.1
20170628195020 63 257 9.0 25.0 0.00 0.43 0.08 70 1012.1
20170628194521 63 257 10.0 25.0 0.00 0.43 0.08 69 1011.8
20170628194019 63 241 10.0 27.0 0.00 0.43 0.08 69 1011.8
20170628193519 63 259 13.0 27.0 0.00 0.43 0.08 70 1011.8
20170628193030 63 230 13.0 24.0 0.00 0.43 0.08 69 1011.7
20170628192521 63 237 13.0 24.0 0.00 0.43 0.08 70 1011.7
20170628192015 63 180 13.0 24.0 0.00 0.43 0.08 70 1011.7
20170628191519 64 234 11.0 25.0 0.00 0.43 0.08 73 1011.7
20170628191026 64 267 12.0 24.0 0.00 0.43 0.08 72 1011.7
20170628190523 64 236 13.0 28.0 0.00 0.43 0.08 73 1011.7
20170628190018 63 265 11.0 28.0 0.00 0.67 0.08 74 1011.7
20170628185517 63 244 14.0 26.0 0.00 0.67 0.08 75 1011.7
20170628185030 63 279 9.0 18.0 0.00 0.67 0.08 78 1011.7
20170628184525 63 280 10.0 22.0 0.04 0.67 0.08 78 1011.6
20170628184018 63 250 9.0 21.0 0.04 0.67 0.08 80 1011.6
20170628183520 63 254 8.0 23.0 0.04 0.67 0.08 79 1011.6
20170628183017 63 262 13.0 25.0 0.04 0.67 0.08 78 1011.2
20170628182519 64 206 9.0 25.0 0.04 0.67 0.08 78 1011.2
20170628182015 64 254 12.0 25.0 0.04 0.67 0.08 78 1011.2
20170628181515 64 260 13.0 25.0 0.04 0.67 0.08 79 1011.1
20170628181031 64 273 10.0 24.0 0.04 0.67 0.08 79 1011.1
20170628180527 64 240 15.0 24.0 0.04 0.67 0.08 79 1011.1
20170628180019 63 233 12.0 28.0 0.04 2.56 0.08 81 1011.1
20170628175520 63 259 9.0 30.0 0.04 2.56 0.08 83 1011.1
20170628175016 64 286 15.0 30.0 0.00 2.52 0.07 78 1011.1
20170628174531 65 286 12.0 27.0 0.00 2.52 0.07 74 1010.9
20170628174023 65 242 8.0 25.0 0.00 2.52 0.07 76 1010.9
20170628173522 65 265 10.0 28.0 0.00 2.52 0.07 76 1010.9
20170628173018 65 265 13.0 28.0 0.00 2.52 0.07 75 1010.7
20170628172515 65 260 9.0 31.0 0.00 2.52 0.07 74 1010.7
20170628172031 65 248 8.0 31.0 0.00 2.52 0.07 74 1010.7
20170628171532 65 286 10.0 26.0 0.00 2.52 0.07 73 1010.6
20170628171026 66 253 11.0 22.0 0.00 2.52 0.07 72 1010.6
20170628170527 65 234 11.0 22.0 0.00 2.52 0.07 72 1010.6
20170628170023 65 269 12.0 22.0 0.00 2.83 0.07 74 1010.7
20170628165525 64 241 11.0 25.0 0.00 2.83 0.07 74 1010.7
20170628165020 64 227 13.0 30.0 0.00 2.83 0.07 74 1010.7
20170628164519 65 286 14.0 30.0 0.00 2.83 0.07 76 1010.6
20170628164017 65 170 11.0 26.0 0.00 2.83 0.07 75 1010.6
20170628163521 65 246 9.0 26.0 0.00 2.83 0.07 77 1010.6
20170628163016 66 201 10.0 31.0 0.00 2.83 0.07 74 1010.2
20170628162519 66 207 13.0 30.0 0.00 2.83 0.07 73 1010.2
20170628162011 67 257 15.0 30.0 0.00 2.83 0.07 72 1010.2
20170628161528 67 258 18.0 29.0 0.00 2.83 0.07 72 1010.1
20170628161015 67 259 17.0 31.0 0.00 2.83 0.07 71 1010.1
20170628160515 67 215 16.0 31.0 0.00 2.83 0.07 72 1010.1
20170628160031 67 271 16.0 31.0 0.00 2.83 0.07 71 1009.9
20170628155515 67 268 17.0 30.0 0.00 2.83 0.07 71 1009.9
20170628155029 67 259 15.0 36.0 0.00 2.83 0.07 72 1009.9
20170628154516 67 282 14.0 36.0 0.00 2.83 0.07 72 1009.5
20170628154012 68 284 17.0 31.0 0.00 2.83 0.07 70 1009.5
20170628153521 67 244 13.0 39.0 0.00 2.83 0.07 73 1009.5
20170628153030 67 257 16.0 39.0 0.00 2.83 0.07 71 1009.4
20170628152532 67 254 21.0 33.0 0.00 2.83 0.07 71 1009.4
20170628152013 67 254 16.0 37.0 0.00 2.83 0.07 72 1009.4
20170628151515 68 300 15.0 32.0 0.00 2.83 0.07 71 1008.9
20170628151018 68 271 13.0 29.0 0.00 2.83 0.07 72 1008.9
20170628150519 68 216 11.0 30.0 0.00 2.83 0.07 72 1008.9
20170628150031 68 218 15.0 30.0 0.00 2.83 0.07 71 1008.7
20170628145526 68 237 17.0 36.0 0.00 2.83 0.07 71 1008.7
20170628145023 68 218 19.0 36.0 0.00 2.83 0.07 70 1008.7
20170628144524 68 265 12.0 30.0 0.00 2.83 0.07 73 1008.5
20170628144021 67 214 13.0 30.0 0.00 2.83 0.07 73 1008.5
20170628143518 68 231 16.0 37.0 0.00 2.83 0.07 71 1008.5
20170628143014 67 267 16.0 37.0 0.00 2.83 0.07 73 1008.0
20170628142530 67 249 13.0 27.0 0.00 2.83 0.07 75 1008.0
20170628142024 67 238 10.0 28.0 0.08 2.83 0.07 77 1008.0
20170628141521 67 265 13.0 35.0 0.16 2.83 0.07 77 1008.0
20170628141023 66 273 14.0 33.0 0.16 2.83 0.07 79 1008.0
20170628140522 65 271 13.0 25.0 0.16 2.83 0.07 81 1008.0
20170628140018 65 215 11.0 22.0 0.16 2.83 0.07 84 1008.0
20170628135519 64 247 9.0 21.0 0.16 2.83 0.07 86 1008.0
20170628135018 64 252 10.0 25.0 0.16 2.83 0.07 84 1008.0
20170628134531 64 255 14.0 28.0 0.16 2.83 0.07 84 1007.7
20170628134022 64 209 11.0 28.0 0.16 2.83 0.07 86 1007.7
20170628133518 63 269 14.0 26.0 0.16 2.83 0.07 87 1007.7
20170628133016 63 269 11.0 27.0 0.16 2.83 0.07 87 1007.5
20170628132527 64 183 12.0 33.0 0.12 2.80 0.06 83 1007.5
20170628132021 66 255 18.0 30.0 0.04 2.72 0.05 75 1007.5
20170628131521 69 224 17.0 30.0 0.00 2.68 0.04 69 1006.9
20170628131018 71 259 14.0 26.0 0.00 2.68 0.04 66 1006.9
20170628130515 71 269 11.0 21.0 0.00 2.68 0.04 66 1006.9
20170628130017 70 227 8.0 27.0 0.00 2.76 0.04 69 1006.9
20170628125530 69 250 10.0 27.0 0.00 2.76 0.04 71 1006.9
20170628125024 68 243 7.0 22.0 0.00 2.76 0.04 75 1006.9
20170628124521 67 263 13.0 22.0 0.00 2.76 0.04 78 1006.8
20170628124023 66 256 10.0 18.0 0.00 2.76 0.04 82 1006.8
20170628123519 65 199 10.0 25.0 0.00 2.76 0.04 82 1006.8
20170628123017 66 258 14.0 28.0 0.00 2.76 0.04 79 1006.2
20170628122519 68 268 13.0 28.0 0.00 2.76 0.04 76 1006.2
20170628122013 69 277 15.0 30.0 0.00 2.76 0.04 72 1006.2
20170628121534 70 245 12.0 27.0 0.00 2.76 0.04 69 1005.8
20170628121027 71 267 8.0 27.0 0.00 2.76 0.04 69 1005.8
20170628120528 70 292 11.0 23.0 0.00 2.76 0.04 69 1005.8
20170628120025 71 301 12.0 23.0 0.00 2.80 0.04 69 1005.5
20170628115526 71 244 7.0 19.0 0.00 2.80 0.04 70 1005.5
20170628115024 70 236 10.0 20.0 0.00 2.80 0.04 71 1005.5
20170628114523 71 234 7.0 20.0 0.00 2.80 0.04 71 1005.6
20170628114020 69 260 10.0 26.0 0.00 2.80 0.04 71 1005.6
20170628113525 70 279 9.0 26.0 0.00 2.80 0.04 67 1005.6
20170628113016 71 257 11.0 19.0 0.00 2.80 0.04 59 1005.4
20170628112529 72 244 10.0 20.0 0.00 2.80 0.04 56 1005.4
20170628112021 72 259 7.0 20.0 0.00 2.80 0.04 58 1005.4
20170628111519 72 287 5.0 22.0 0.00 2.80 0.04 58 1005.6
20170628111022 72 233 10.0 22.0 0.00 2.80 0.04 57 1005.6
20170628110523 73 203 11.0 26.0 0.00 2.80 0.04 58 1005.6
20170628110015 72 230 12.0 26.0 0.00 2.80 0.04 57 1005.5
20170628105525 73 224 10.0 22.0 0.00 2.80 0.04 56 1005.5
20170628105022 73 229 8.0 14.0 0.00 2.80 0.04 61 1005.5